Regional Weather Roundup
Issued by NWS

Home | Current Version | Previous Version | Graphics & Text | Print | Product List | Glossary Off
Versions: 1 2 3 4 5 6 7 8 9 10 11 12 13 14 15 16 17 18 19 20 21 22 23 24 25 26 27 28 29 30 31 32 33 34 35 36 37 38 39 40 41 42 43 44 45 46 47 48 49 50

000
ASUS43 KTOP 170708
RWRKS

WEATHER ROUNDUP FOR KANSAS
NATIONAL WEATHER SERVICE GOODLAND KS
100 AM CST SUN DEC 17 2017

NOTE:  "FAIR" INDICATES FEW OR NO CLOUDS BELOW 12,000 FEET WITH NO
SIGNIFICANT WEATHER AND/OR OBSTRUCTIONS TO VISIBILITY.

KSZ001>006-013>018-027>032-041>047-170800-
NORTHWEST KANSAS

CITY           SKY/WX    TMP DP  RH WIND       PRES   REMARKS
GOODLAND       CLOUDY    32  29  88 NE21G26   29.91R WCI  20
HAYS           CLOUDY    39  25  57 N5        29.87R
HILL CITY      MOCLDY    35  29  78 NE9       29.90R
RUSSELL        CLOUDY    48  29  47 S10       29.85S
$$

KSZ061>065-074>080-084>089-170800-
SOUTHWEST KANSAS

CITY           SKY/WX    TMP DP  RH WIND       PRES   REMARKS
DODGE CITY     LGT RAIN  42  32  67 S10       29.86R
ELKHART        CLOUDY    33  25  72 NW7       29.79R
GARDEN CITY    MOCLDY    40  23  50 S8        29.82R
GREAT BEND     CLOUDY    48  27  44 S15       29.86S
LIBERAL        PTCLDY    39  28  64 S13       29.81S WCI  31
PRATT          RAIN      43  34  69 S12       29.88S
$$

KSZ066>073-081>083-090>101-170800-
SOUTHEAST KANSAS

CITY           SKY/WX    TMP DP  RH WIND       PRES   REMARKS
CHANUTE        LGT RAIN  45  42  89 S13       30.01S
COFFEYVILLE    RAIN      44  43  96 S8        30.03S FOG
HUTCHINSON     CLOUDY    44  40  85 S8        29.91R
MEDICINE LODGE   N/A     47  33  58 S15G23    29.89F
NEWTON         LGT RAIN  42  40  92 S13       29.91
PARSONS        RAIN      44  43  96 S8        30.03R FOG
WICHITA INTL   CLOUDY    45  42  89 S13       29.91F
WICHITA JABRA  CLOUDY    43  42  97 S12       29.92F
WICHITA MCCONL CLOUDY    43  39  87 S14       29.92F
WINFIELD       CLOUDY    44  43  96 S13       29.97F
$$

KSZ007>012-019>026-033>040-048>060-102>105-170800-
NORTHEAST KANSAS

CITY           SKY/WX    TMP DP  RH WIND       PRES   REMARKS
CONCORDIA      MOCLDY    37  27  67 CALM      29.90S
EMPORIA        LGT RAIN  44  37  76 S12       29.96S
LAWRENCE       CLOUDY    41  31  67 E5        29.97S
MANHATTAN      MOCLDY    48  26  42 CALM      29.92F
MARYSVILLE     CLOUDY    34  27  75 N3        29.93S
OLATHE IND     CLOUDY    46  28  49 S7        29.97F
OLATHE EXE     MOCLDY    42  28  57 S5        29.97F
SALINA         CLOUDY    53  27  36 S13G23    29.90R
TOPEKA BILLARD MOCLDY    42  32  67 E3        29.96S
TOPEKA FORBES  CLOUDY    46  30  53 S7        29.95F
$$




USA.gov is the U.S. government's official web portal to all federal, state and local government web resources and services.